www.pogodaiklimat.ru

Погода и климат >> Архив погоды >> Кувейт >> Nuwasib


ПОГОДА в Nuwasib

  • Прогноз погоды в Nuwasib
  • Монитор погоды в Nuwasib
  • Климат города

АРХИВ ПОГОДЫ в Nuwasib

Время (UTC), дата Ветер
(напр.,м/с)
 
Видим.   Явления Облачность Т
(С)
Тd
(С)
f
(%)
Тe
(С)
Тes
(С)
Комфортность P
(гПа)
Po
(гПа)
Тmin
(С)
Tmax
(С)
R
(мм)
R24
(мм)
S
(см)
21 13.09 СЗ 4-8
{10}
н/о н/о +35.6 -3.7 8 +32 +32 жарко 1001.8 1002.0 +29.4 +44.0
00 14.09 СЗ 3-7
{11}
н/о н/о +32.7 -1.2 11 +29 +29 жарко 1001.9 1002.0
03 14.09 СЗ 4-7
{7}
н/о н/о +29.9 +0.2 15 +27 +27 жарко 1002.7 1003.0
12 14.09 В 5-7
{8}
н/о н/о +38.0 +21.0 37 +44 +44 опасность
перегрева
1001.4 1001.0
18 14.09 СЗ 1-1
{7}
н/о н/о +30.9 +27.3 81 +49 +49 опасность
перегрева
1003.6 1004.0
21 14.09 ЮЗ 2-2
{5}
н/о н/о +28.4 +25.9 86 +42 +42 опасность
перегрева
1003.6 1004.0 +28.0 +44.4
00 15.09 З 3-4
{5}
н/о н/о +28.0 +28.0 100 +46 +46 опасность
перегрева
1003.2 1003.0
03 15.09 ЮЗ 1-2
{5}
н/о н/о +25.3
18 15.09 Ю 3-3
{6}
н/о н/о +31.4 +28.0 82 +52 +52 опасность
перегрева
1005.4 1005.0
00 16.09 СЗ 2-4
{5}
н/о н/о +30.1 +13.4 36 +32 +32 жарко 1004.9 1005.0
03 16.09 СЗ 2-4
{6}
н/о н/о +29.5 +8.3 27 +29 +29 жарко 1006.0 1006.0
06 16.09 СЗ 3-6
{8}
н/о н/о +38.2 +6.5 14 +36 +36 очень
жарко
1006.3 1006.0
09 16.09 СВ 4-7
{8}
н/о н/о +39.8 +14.6 23 +41 +41 опасность
перегрева
1004.5 1005.0
12 16.09 В 4-6
{8}
н/о н/о +39.4 +18.5 30 +43 +43 опасность
перегрева
1003.4 1003.0
15 16.09 ЮВ 1-2
{6}
н/о н/о +35.3 +19.2 39 +40 +40 очень
душно
1003.3 1003.0
18 16.09 Ю 2-3
{6}
н/о н/о +32.3 +16.4 39 +35 +35 очень
душно
1004.5 1005.0
21 16.09 СЗ 2-3
{4}
н/о н/о +33.8 +5.1 17 +31 +31 жарко 1004.2 1004.0 +28.7 +43.0
00 17.09 СЗ 2-3
{4}
н/о н/о +31.2 +6.6 21 +30 +30 жарко 1003.9 1004.0
03 17.09 СЗ 2-4
{6}
н/о н/о +30.0 +4.8 20 +28 +28 жарко 1004.5 1005.0
06 17.09 С 4-9
{10}
н/о н/о +39.7 +4.4 11 +37 +37 очень
жарко
1005.0 1005.0
09 17.09 С 7-12
{12}
н/о н/о +43.8 +2.2 8 +40 +40 очень
жарко
1003.6 1004.0
12 17.09 СВ 3-5
{12}
н/о н/о +40.7 +11.8 18 +40 +40 очень
жарко
1002.4 1002.0
15 17.09 СЗ 2-3
{6}
н/о н/о +35.4 +20.4 42 +42 +42 опасность
перегрева
1002.6 1003.0
18 17.09 ЮЗ 2-3
{6}
н/о н/о +31.5 +18.0 45 +36 +36 очень
душно
1004.2 1004.0
21 17.09 З 2-3
{8}
н/о н/о +31.1 +11.4 30 +31 +31 жарко 1004.0 1004.0 +29.6 +44.3
00 18.09 СЗ 2-3
{8}
н/о н/о +30.7 +6.2 21 +29 +29 жарко 1003.8 1004.0
03 18.09 СЗ 2-4
{4}
н/о н/о +30.2 +6.8 23 +29 +29 жарко 1004.7 1005.0
06 18.09 С 3-5
{6}
н/о н/о +40.2 +5.9 12 +37 +37 очень
жарко
1005.9 1006.0
09 18.09 В 4-6
{7}
н/о н/о +38.8 +17.5 29 +42 +42 опасность
перегрева
1005.0 1005.0
12 18.09 В 4-7
{8}
н/о н/о +38.6 +24.9 46 +51 +51 опасность
перегрева
1003.7 1004.0
15 18.09 С 2-4
{7}
н/о н/о +34.6 +28.4 70 +56 +56 опасность
перегрева
1004.2 1004.0
18 18.09 ЮВ 3-4
{7}
н/о н/о +32.1 +27.8 78 +52 +52 опасность
перегрева
1006.2 1006.0
21 18.09 В 2-3
{5}
н/о н/о +31.9 +29.4 87 +57 +57 опасность
перегрева
1007.0 1007.0 +29.2 +41.5
00 19.09 З 3-4
{5}
н/о н/о +30.0 +28.3 91 +51 +51 опасность
перегрева
1005.7 1006.0
03 19.09 В 1-1
{4}
н/о н/о +28.8 +28.5 98 +49 +49 опасность
перегрева
1006.5 1007.0
06 19.09 В 4-6
{6}
н/о н/о +34.8 +25.9 60 +50 +50 опасность
перегрева
1007.9 1008.0
09 19.09 В 5-8
{9}
н/о н/о +37.0 +26.1 54 +53 +53 опасность
перегрева
1006.5 1007.0
12 19.09 В 4-6
{9}
н/о н/о +37.6 +23.0 43 +47 +47 опасность
перегрева
1005.1 1005.0
15 19.09 ЮВ 3-5
{8}
н/о н/о +33.3 +28.0 74 +54 +54 опасность
перегрева
1005.2 1005.0
18 19.09 В 2-2
{8}
н/о н/о +31.7 +28.2 82 +53 +53 опасность
перегрева
1006.7 1007.0
21 19.09 ЮЗ 2-2
{3}
н/о н/о +29.8 +27.3 86 +47 +47 опасность
перегрева
1006.1 1006.0 +28.6 +39.0
00 20.09 ЮЗ 3-4
{4}
н/о н/о +28.4 +27.5 95 +46 +46 опасность
перегрева
1005.7 1006.0
03 20.09 ЮЗ 2-4
{5}
н/о н/о +27.4 +27.4 100 +44 +44 опасность
перегрева
1006.0 1006.0

 

Местоположение метеостанции Nuwasib (Кувейт): широта 28.50 долгота 48.75 высота над уровнем моря 2 м.

В архиве по умолчанию представлена погода в Nuwasib за последнюю неделю. Архивные данные за месяц целиком и за предыдущие месяцы, начиная с января 2011 года, Вы можете получить, выбрав интересующий диапазон дат из раскрывающегося списка и нажав кнопку "Ввод!".


*Определитесь, кто Вы:
робот инопланетянин человек

Внимание! Время в таблицах - всемирное. Для получения местного времени необходимо прибавить поправку, которая в Nuwasib равна 3 ч.

Смотрите также архив погоды в соседних городах и на ближайших метеорологических станциях:

Погода в Umm-Al-Maradim (Кувейт) (22 км)
Погода в Juluiah Port (Кувейт) (62 км)
Погода в Al-Wafra (Кувейт) (68 км)
Погода в Kuwait (Кувейт) (110 км)
Погода в Al-Shuaiba (Кувейт) (114 км)
Погода в Kuwait City (Кувейт) (115 км)
Погода в Failaka Island (Кувейт) (117 км)
Погода в Experimental Farm (Кувейт) (118 км)
Погода в Sulaibiya (Кувейт) (132 км)
Погода в Minagish (Кувейт) (135 км)

Пояснения к столбцам:

Ветер - указаны скорость ветра в м/с - средняя за 10 мин, порывы в срок и между сроками (в фигурных скобках) и направление, откуда дует ветер: С - северный, СВ - северо-восточный, В - восточный, ЮВ - юго-восточный, Ю - южный, ЮЗ - юго-западный, З - западный, СЗ - северо-западный.
Видимость - горизонтальная дальность видимости в метрах или километрах. При видимости от 1 до 10 км при отсутствии осадков обычно наблюдается дымка, при ухудшении видимости до 1 км и менее - туман. В сухую погоду видимость может ухудшаться дымом, пылью или мглою.
Явления - указаны атмосферные явления, наблюдавшиеся в срок или в последний час перед сроком; фигурными скобками обозначены явления, наблюдавшиеся между сроками (за 1-3 часа до срока); квадратными скобками обозначены град или гололедные отложения с указанием их диаметра в мм.
Облачность - указаны через наклонную черту общая и нижняя облачность в баллах и высота нижней границы облаков в метрах; квадратными скобками обозначены формы облаков: Ci - перистые, Cs - перисто-слоистые, Cc - перисто-кучевые, Ac - высококучевые, As - высокослоистые, Sc - слоисто-кучевые, Ns - слоисто-дождевые, Cu - кучевые, Cb - кучево-дождевые. Подробнее классификацию облаков см. в Атласе облаков (PDF).
T - Температура воздуха - температура, измеренная на высоте 2 м над землей.
Td - Температура точки росы - температура, при понижении до которой содержащийся в воздухе водяной пар достигнет насыщения.
f - Относительная влажность воздуха - влажноcть воздуха, измеренная на высоте 2 м над землей.
Te - Эффективная температура - температура, которую ощущает одетый по сезону человек в тени. Характеристика душности погоды. При расчете учитывается влияние влажности воздуха и скорости ветра на теплоощущения человека.
Tes - Эффективная температура на солнце - температура, которую ощущает человек, с поправкой на солнечный нагрев. Характеристика знойности погоды. Зависит от высоты солнца над горизонтом, облачности и скорости ветра. Ночью, в пасмурную погоду, а также при ветре 12 м/с и более поправка равна нулю.
P - Атмосферное давление - приведенное к уровню моря атмосферное давление.
Po - Атмосферное давление - измеренное на уровне метеостанции атмосферное давление.
Tmin - Минимальная температура - минимум температуры воздуха на высоте 2 м над землей.
Tmax - Максимальная температура - максимум температуры воздуха на высоте 2 м над землей.
R - Количество осадков - Количество выпавших осадков за период времени, мм. При наведении курсора мыши на число - период времени, за который выпало указанное количество осадков.
R24 - Количество осадков - Количество выпавших осадков за 24 часа, мм.
S - Снежный покров - Высота снежного покрова, см. При наведении курсора мыши на число - состояние снежного покрова и степень покрытия местности в баллах.